Lid_Strength_Index
11 10 9 6 5 4 3 3 3 2 2 2 2 2 1 1 2 2 2 3 5 5 4 5 6 7 7 10 11 11 11 12
11 11 11 11 10 8 6 5 4 4 3 3 3 2 2 2 2 2 3 4 5 5 5 7 8 9 10 11 12 11 12 12
10 10 11 10 10 10 10 9 7 6 5 5 4 5 4 3 2 3 4 6 6 7 7 8 8 10 10 12 11 12 13 14
11 11 10 10 10 10 9 9 8 8 7 7 6 5 5 5 6 7 8 8 9 9 8 9 9 10 11 10 12 12 12 13
11 11 10 10 10 10 10 9 8 8 8 8 8 6 5 6 6 7 8 9 9 9 9 9 10 10 11 12 12 13 13 13
11 11 11 10 10 10 10 9 9 8 8 8 9 8 8 9 9 9 9 10 10 10 11 11 11 11 12 12 12 13 14 13
10 11 11 11 10 10 10 10 9 9 9 9 9 10 11 11 12 11 11 12 12 12 12 12 11 10 11 12 13 13 13 14
11 11 11 11 10 10 10 10 10 11 12 11 12 12 12 13 13 14 13 13 13 13 14 13 12 10 10 11 12 12 13 14
11 11 10 10 9 9 10 11 12 12 12 13 13 13 14 14 14 14 14 14 14 14 13 13 13 10 10 12 13 13 13 13
11 10 10 10 10 11 12 12 12 12 13 13 13 15 15 16 16 14 14 15 15 15 14 14 14 11 11 12 13 14 14 14
10 10 11 11 11 12 13 13 13 13 13 13 14 16 17 16 15 15 14 14 15 14 14 14 14 11 11 13 14 14 15 15
11 12 12 12 13 13 14 14 14 14 14 16 16 17 17 17 18 17 15 15 15 15 14 14 13 12 11 11 14 14 15 14
14 14 14 15 14 14 15 15 16 16 16 17 19 17 17 19 19 18 14 14 15 15 15 15 14 13 11 11 12 13 14 14
15 16 16 16 16 16 16 16 17 17 18 19 18 18 18 20 20 19 18 17 15 15 15 15 15 14 11 10 11 12 14 13
17 18 19 19 18 19 18 17 18 18 18 19 19 19 19 18 18 20 20 20 18 18 15 15 15 14 13 12 11 12 12 12
18 19 20 20 20 21 20 20 18 18 19 19 20 21 20 19 19 18 19 18 20 20 19 19 19 15 13 12 12 12 12 13
20 21 22 23 23 24 23 22 20 18 19 19 20 20 20 20 20 14 13 12 12 12 15 18 13 12 12 12 11 11 10 13
22 23 25 25 26 27 26 25 22 20 20 21 20 21 22 22 22 21 18 14 13 13 13 12 12 12 12 12 11 11 11 13
25 27 29 28 28 28 28 26 23 23 22 22 24 24 24 24 24 24 24 24 22 17 14 13 12 12 11 11 11 13 13 13
28 29 29 29 29 30 29 26 25 22 24 25 24 25 24 25 24 24 24 24 24 24 18 18 13 13 12 11 13 14 14 13